www.pogodaiklimat.ru

Погода и климат >> Архив погоды >> Узбекистан >> Тамдыбулак


АРХИВ ПОГОДЫ в Тамдыбулаке

Время (UTC), дата Ветер
(напр.,м/с)
 
Видим.   Явления Облачность Т
(С)
Тd
(С)
f
(%)
Тe
(С)
Тes
(С)
Комфортность P
(гПа)
Po
(гПа)
Тmin
(С)
Tmax
(С)
R
(мм)
R24
(мм)
S
(см)
15 9.06 З 5 20 км 9/0
[Ac trans Ci fib]
+25.8 -0.9 17 +24 +24 комфорт 1014.5 987.6 +29.7
18 9.06 СВ 1 н/о ясно +21.6 -2.5 20 +21 +21 комфорт 1014.3 986.9 +29.7
21 9.06 С 1 н/о ясно +19.4 -2.2 23 +20 +20 1013.6 986.0
00 10.06 СВ 2 20 км ясно +17.2 -2.7 26 +18 +18 1013.5 985.7
03 10.06 СЗ 1 20 км ясно +21.6 0.0 24 +21 +28 комфорт 1015.2 987.8
06 10.06 СЗ 2 20 км 4/0
[Ac trans Ci fib]
+23.9 +0.2 21 +23 +38 комфорт 1013.6 986.4 +17.0
09 10.06 СЗ 2 20 км 9/0
[Ac trans Ci fib]
+25.8 +0.6 19 +24 +33 комфорт 1011.3 984.5
12 10.06 С 2 20 км 8/0
[Ac trans]
+26.7 0.0 17 +25 +28 комфорт 1011.4 984.7
15 10.06 С 2 20 км 6/0
[Ac trans]
+25.1 0.0 19 +24 +24 комфорт 1013.5 986.4 +27.5
18 10.06 В 1 н/о 4/0
[Ac trans]
+20.8 -0.9 23 +22 +22 комфорт 1020.0 992.4 +27.5
21 10.06 ЮВ 1 н/о ясно +18.0 -1.7 26 +19 +19 1019.4 991.5
00 11.06 Ю 1 20 км ясно +15.8 -2.5 28 +17 +17 1020.0 991.8
03 11.06 З 1 20 км ясно +19.8 -1.4 24 +21 +27 комфорт 1018.8 991.6
06 11.06 СВ 1 20 км ясно +26.8 +2.1 20 +25 +45 комфорт 1019.2 992.2 +15.6
09 11.06 СВ 3 20 км ясно +28.5 +1.3 17 +26 +42 жарко 1019.6 992.6
12 11.06 СЗ 2 20 км ясно +30.2 0.0 14 +27 +34 жарко 1016.3 989.6
15 11.06 В 2 20 км ясно +28.6 +0.6 16 +26 +26 жарко 1016.1 989.1 +31.0
18 11.06 ЮВ 1 н/о ясно +23.4 -1.9 18 +22 +22 комфорт 1017.3 990.0 +31.0
21 11.06 СЗ 1 н/о ясно +21.4 -4.7 17 +20 +20 1018.8 991.2
00 12.06 В 1 20 км ясно +18.5 -1.4 26 +20 +20 1019.3 991.4
03 12.06 З 1 20 км ясно +23.8 +1.5 23 +23 +29 комфорт 1016.3 988.1
06 12.06 В 1 20 км ясно +29.8 +2.3 17 +27 +48 жарко 1014.1 987.5 +18.3
09 12.06 В 1 20 км ясно +32.6 +1.7 14 +30 +51 опасность
солнечного
удара
1013.0 986.6
12 12.06 Ю 3 20 км ясно +33.6 +1.3 13 +30 +36 жарко 1010.7 984.4
15 12.06 Ю 1 20 км ясно +33.0 +3.0 15 +30 +30 жарко 1011.8 985.4 +34.5
18 12.06 ЮВ 2 н/о ясно +27.4 +2.7 20 +26 +26 жарко 1011.2 984.4 +34.5
21 12.06 З 1 н/о ясно +26.8 +2.9 21 +25 +25 комфорт 1015.5 983.7
00 13.06 В 1 20 км ясно +20.5 +9.9 51 +23 +23 комфорт 1009.3 986.8
03 13.06 ЮВ 1 20 км ясно +28.2 -4.7 11 +25 +31 комфорт 1009.6 982.8
06 13.06 ЮЗ 1 20 км ясно +33.8 -2.5 10 +30 +50 жарко 1011.2 984.9 +21.6
09 13.06 З 1 20 км 6/0
[Ac trans Ci fib]
+35.4 -2.5 9 +31 +47 жарко 1011.8 985.6
12 13.06 В 1 20 км 5/0
[Ac trans Ci fib]
+36.4 +2.3 12 +33 +39 жарко 1019.2 982.9
15 13.06 В 2 20 км 4/0
[Ac trans]
+33.6 +0.4 12 +30 +30 жарко 1008.4 982.1 +37.3
18 13.06 В 1 н/о 3/0
[Ac trans]
+28.8 +0.4 16 +26 +26 жарко 1007.4 980.9 +37.3
21 13.06 Ю 1 н/о ясно +26.6 +1.3 19 +25 +25 комфорт 1007.2 980.5
00 14.06 ЮВ 1 20 км ясно +23.4 +0.6 22 +22 +22 комфорт 1007.8 980.7
03 14.06 Ю 1 20 км ясно +25.2 +0.6 20 +24 +30 комфорт 1009.9 982.9
06 14.06 СЗ 2 20 км 3/0
[Ac trans]
+35.1 +0.4 11 +32 +46 жарко 1011.4 985.2 +23.2
09 14.06 З 2 20 км 5/0
[Ac trans Ci fib]
+37.2 -0.5 9 +33 +47 жарко 1009.0 983.1
12 14.06 З 4 20 км 6/0
[Ac trans Ci fib]
+38.1 -1.2 8 +34 +38 очень
жарко
1003.9 978.2
15 14.06 З 2 20 км 6/0
[Ac trans Ci fib]
+35.7 0.0 10 +32 +32 жарко 1002.6 976.7 +38.9
18 14.06 З 2 н/о 8/0
[Ac trans]
+33.1 +1.3 13 +30 +30 жарко 1003.3 977.2 +38.9
21 14.06 З 2 н/о 6/0
[Ac trans]
+28.1 +1.9 18 +26 +26 жарко 1006.6 980.0
00 15.06 Ю 3 20 км 10/0
[Ac trans]
+25.4 +1.5 21 +24 +24 комфорт 1006.8 980.4
03 15.06 СЗ 2 20 км ясно +28.6 +3.0 19 +27 +32 жарко 1007.7 981.2
06 15.06 СЗ 4 20 км ясно +30.5 +1.9 16 +28 +40 жарко 1008.4 981.9 +25.1
09 15.06 С 5 20 км ясно +33.2 +1.1 13 +30 +40 жарко 1008.7 982.5
12 15.06 З 6 20 км ясно +33.4 -1.2 11 +30 +33 жарко 1009.0 982.8
15 15.06 З 3 20 км ясно +30.6 -0.7 13 +27 +27 жарко 1009.8 983.3 +34.6
18 15.06 В 1 н/о ясно +25.4 -2.7 15 +23 +23 комфорт 1010.8 983.8 +34.6
21 15.06 ЮВ 2 н/о ясно +23.5 -1.9 18 +22 +22 комфорт 1011.7 984.5
00 16.06 З 3 20 км ясно +21.2 -1.7 21 +21 +21 комфорт 1011.0 983.6
03 16.06 С 3 20 км ясно +23.7 -1.2 19 +22 +27 комфорт 1013.0 985.7
06 16.06 СЗ 2 20 км ясно +26.5 -0.9 17 +24 +42 комфорт 1012.2 985.3 +21.0
09 16.06 С 3 20 км ясно +28.6 -1.4 14 +26 +41 жарко 1013.0 986.2
12 16.06 С 4 20 км ясно +33.0 -2.2 10 +29 +34 жарко 1009.6 983.3

 

Местоположение метеостанции Тамдыбулак (Навоийская область, Узбекистан): широта 41.73 долгота 64.62 высота над уровнем моря 237 м.

В архиве по умолчанию представлена погода в Тамдыбулаке за последнюю неделю. Архивные данные за месяц целиком и за предыдущие месяцы, начиная с января 2011 года, Вы можете получить, выбрав интересующий диапазон дат из раскрывающегося списка и нажав кнопку "Ввод!".


*Определитесь, кто Вы:
робот инопланетянин человек

Внимание! Время в таблицах - всемирное. Для получения местного времени необходимо прибавить поправку, которая равна 5 ч.

Смотрите также архив погоды в соседних городах и на ближайших метеорологических станциях:

Погода в Зарафшане (Навоийская область, Узбекистан) (30 км)
Погода в Учкудуке (Навоийская область, Узбекистан) (87 км)
Погода в Машикудуке (Навоийская область, Узбекистан) (94 км)
Погода в Айякагитме (Узбекистан) (117 км)
Погода в Джангельды (Бухарская область, Узбекистан) (146 км)
Погода в Нурате (Навоийская область, Узбекистан) (158 км)
Погода в Акбайтале (Навоийская область, Узбекистан) (160 км)
Погода в Бузаубае (Хорезмская область, Узбекистан) (178 км)
Погода в Навои (Навоийская область, Узбекистан) (188 км)
Погода в Бухаре (Бухарская область, Узбекистан) (224 км)

Пояснения к столбцам:

Ветер - указаны скорость ветра в м/с - средняя за 10 мин, порывы в срок и между сроками (в фигурных скобках) и направление, откуда дует ветер: С - северный, СВ - северо-восточный, В - восточный, ЮВ - юго-восточный, Ю - южный, ЮЗ - юго-западный, З - западный, СЗ - северо-западный.
Видимость - горизонтальная дальность видимости в метрах или километрах. При видимости от 1 до 10 км при отсутствии осадков обычно наблюдается дымка, при ухудшении видимости до 1 км и менее - туман. В сухую погоду видимость может ухудшаться дымом, пылью или мглою.
Явления - указаны атмосферные явления, наблюдавшиеся в срок или в последний час перед сроком; фигурными скобками обозначены явления, наблюдавшиеся между сроками (за 1-3 часа до срока); квадратными скобками обозначены град или гололедные отложения с указанием их диаметра в мм.
Облачность - указаны через наклонную черту общая и нижняя облачность в баллах и высота нижней границы облаков в метрах; квадратными скобками обозначены формы облаков: Ci - перистые, Cs - перисто-слоистые, Cc - перисто-кучевые, Ac - высококучевые, As - высокослоистые, Sc - слоисто-кучевые, Ns - слоисто-дождевые, Cu - кучевые, Cb - кучево-дождевые. Подробнее классификацию облаков см. в Атласе облаков (PDF).
T - Температура воздуха - температура, измеренная на высоте 2 м над землей.
Td - Температура точки росы - температура, при понижении до которой содержащийся в воздухе водяной пар достигнет насыщения.
f - Относительная влажность воздуха - влажноcть воздуха, измеренная на высоте 2 м над землей.
Te - Эффективная температура - температура, которую ощущает одетый по сезону человек в тени. Характеристика душности погоды. При расчете учитывается влияние влажности воздуха и скорости ветра на теплоощущения человека.
Tes - Эффективная температура на солнце - температура, которую ощущает человек, с поправкой на солнечный нагрев. Характеристика знойности погоды. Зависит от высоты солнца над горизонтом, облачности и скорости ветра. Ночью, в пасмурную погоду, а также при ветре 12 м/с и более поправка равна нулю.
P - Атмосферное давление - приведенное к уровню моря атмосферное давление.
Po - Атмосферное давление - измеренное на уровне метеостанции атмосферное давление.
Tmin - Минимальная температура - минимум температуры воздуха на высоте 2 м над землей.
Tmax - Максимальная температура - максимум температуры воздуха на высоте 2 м над землей.
R - Количество осадков - Количество выпавших осадков за период времени, мм. При наведении курсора мыши на число - период времени, за который выпало указанное количество осадков.
R24 - Количество осадков - Количество выпавших осадков за 24 часа, мм.
S - Снежный покров - Высота снежного покрова, см. При наведении курсора мыши на число - состояние снежного покрова и степень покрытия местности в баллах.